Total_Precipitation_Accumulation
0.05 0.07 0.24 0.31 0.34 0.33 0.33 0.34 0.32 0.29 0.29 0.31 0.31 0.33 0.32 0.32 0.35 0.36 0.39 0.42 0.44 0.41 0.44 0.51 0.52 0.53 0.52 0.49 0.50 0.49 0.42 0.40 0.40 0.41 0.46 0.51 0.46 0.37 0.31 0.27 0.23 0.30 0.38
0.04 0.06 0.17 0.23 0.28 0.30 0.31 0.30 0.28 0.23 0.24 0.26 0.24 0.24 0.26 0.27 0.30 0.32 0.38 0.44 0.47 0.42 0.43 0.49 0.54 0.52 0.52 0.50 0.52 0.47 0.36 0.28 0.25 0.23 0.25 0.32 0.37 0.35 0.31 0.29 0.28 0.41 0.44
0.03 0.04 0.11 0.18 0.24 0.27 0.29 0.28 0.25 0.21 0.20 0.21 0.20 0.22 0.22 0.25 0.28 0.31 0.37 0.39 0.42 0.46 0.46 0.47 0.57 0.59 0.59 0.56 0.53 0.45 0.37 0.25 0.16 0.14 0.14 0.23 0.34 0.40 0.36 0.32 0.31 0.35 0.39
0.01 0.02 0.05 0.15 0.22 0.26 0.28 0.26 0.23 0.22 0.19 0.19 0.20 0.21 0.22 0.24 0.26 0.30 0.37 0.39 0.43 0.53 0.56 0.59 0.66 0.64 0.59 0.52 0.48 0.42 0.38 0.25 0.14 0.11 0.09 0.20 0.37 0.45 0.40 0.36 0.31 0.32 0.36
0.00 0.01 0.04 0.13 0.21 0.25 0.26 0.27 0.26 0.23 0.19 0.19 0.20 0.21 0.23 0.24 0.26 0.29 0.31 0.37 0.44 0.54 0.55 0.54 0.60 0.58 0.54 0.49 0.44 0.46 0.47 0.33 0.17 0.08 0.07 0.15 0.30 0.48 0.44 0.41 0.35 0.30 0.33
0.00 0.01 0.04 0.13 0.21 0.23 0.27 0.31 0.32 0.26 0.23 0.22 0.22 0.22 0.23 0.25 0.26 0.27 0.28 0.28 0.32 0.40 0.43 0.48 0.51 0.51 0.49 0.46 0.39 0.43 0.51 0.43 0.19 0.06 0.07 0.11 0.24 0.43 0.44 0.43 0.38 0.33 0.30
0.00 0.01 0.04 0.13 0.21 0.23 0.26 0.31 0.33 0.28 0.25 0.24 0.26 0.27 0.27 0.26 0.27 0.26 0.22 0.22 0.22 0.26 0.32 0.41 0.48 0.52 0.51 0.45 0.40 0.43 0.50 0.40 0.16 0.14 0.15 0.15 0.22 0.31 0.45 0.48 0.42 0.38 0.35
0.00 0.01 0.04 0.14 0.22 0.23 0.25 0.29 0.36 0.32 0.28 0.27 0.29 0.31 0.31 0.32 0.34 0.33 0.27 0.23 0.21 0.21 0.24 0.30 0.41 0.57 0.56 0.44 0.42 0.47 0.45 0.26 0.11 0.11 0.14 0.18 0.22 0.36 0.67 0.75 0.56 0.45 0.42
0.01 0.02 0.05 0.12 0.18 0.24 0.26 0.29 0.35 0.33 0.32 0.32 0.33 0.34 0.34 0.34 0.34 0.36 0.33 0.30 0.30 0.27 0.25 0.26 0.34 0.53 0.55 0.48 0.48 0.50 0.36 0.17 0.08 0.14 0.13 0.22 0.21 0.43 0.79 0.88 0.76 0.59 0.49
0.02 0.03 0.06 0.11 0.16 0.21 0.24 0.28 0.32 0.32 0.33 0.34 0.35 0.33 0.30 0.30 0.33 0.32 0.28 0.26 0.28 0.30 0.28 0.26 0.28 0.40 0.46 0.46 0.54 0.47 0.23 0.11 0.06 0.10 0.20 0.20 0.18 0.45 0.86 0.96 0.88 0.74 0.61
0.03 0.04 0.07 0.12 0.16 0.19 0.23 0.24 0.28 0.29 0.30 0.31 0.31 0.28 0.28 0.27 0.27 0.26 0.22 0.21 0.25 0.28 0.29 0.30 0.30 0.35 0.40 0.38 0.44 0.33 0.15 0.08 0.07 0.11 0.19 0.18 0.20 0.43 0.83 0.99 0.94 0.86 0.77
0.04 0.05 0.07 0.12 0.16 0.19 0.21 0.23 0.27 0.27 0.25 0.23 0.23 0.25 0.27 0.28 0.28 0.25 0.22 0.22 0.26 0.27 0.29 0.34 0.37 0.37 0.35 0.32 0.43 0.34 0.17 0.12 0.12 0.08 0.11 0.11 0.23 0.44 0.70 0.91 1.00 0.93 0.88
0.05 0.07 0.11 0.16 0.19 0.21 0.23 0.24 0.27 0.28 0.27 0.26 0.25 0.27 0.32 0.35 0.34 0.31 0.29 0.26 0.26 0.25 0.27 0.31 0.37 0.33 0.37 0.49 0.64 0.50 0.34 0.26 0.17 0.09 0.06 0.07 0.18 0.35 0.57 0.75 0.95 1.06 1.05
0.06 0.07 0.11 0.16 0.20 0.23 0.27 0.29 0.26 0.24 0.23 0.24 0.25 0.25 0.28 0.30 0.29 0.28 0.26 0.25 0.25 0.25 0.26 0.27 0.29 0.32 0.35 0.42 0.47 0.42 0.34 0.29 0.20 0.15 0.09 0.08 0.12 0.20 0.36 0.55 0.76 1.02 1.12
0.06 0.07 0.10 0.13 0.17 0.21 0.27 0.32 0.30 0.27 0.24 0.21 0.20 0.20 0.20 0.22 0.22 0.22 0.20 0.20 0.20 0.21 0.23 0.24 0.23 0.24 0.28 0.30 0.31 0.30 0.29 0.26 0.22 0.20 0.17 0.13 0.11 0.14 0.23 0.40 0.55 0.81 1.07
0.07 0.08 0.09 0.11 0.14 0.19 0.22 0.25 0.30 0.33 0.31 0.27 0.23 0.21 0.20 0.19 0.17 0.17 0.17 0.16 0.16 0.17 0.18 0.20 0.21 0.21 0.23 0.25 0.23 0.22 0.23 0.21 0.19 0.20 0.20 0.18 0.15 0.14 0.20 0.32 0.44 0.58 0.86
0.06 0.08 0.10 0.11 0.13 0.18 0.20 0.21 0.24 0.29 0.33 0.31 0.25 0.23 0.21 0.19 0.17 0.16 0.16 0.16 0.15 0.17 0.21 0.27 0.29 0.30 0.30 0.30 0.27 0.27 0.26 0.23 0.21 0.23 0.24 0.23 0.22 0.20 0.22 0.34 0.43 0.49 0.66
0.06 0.08 0.10 0.12 0.13 0.17 0.21 0.23 0.24 0.28 0.30 0.28 0.26 0.26 0.25 0.23 0.22 0.21 0.19 0.17 0.16 0.19 0.24 0.31 0.36 0.37 0.35 0.36 0.34 0.35 0.35 0.34 0.29 0.29 0.31 0.27 0.26 0.25 0.23 0.29 0.40 0.48 0.61
0.06 0.07 0.10 0.13 0.14 0.16 0.21 0.26 0.25 0.28 0.32 0.30 0.29 0.30 0.29 0.29 0.28 0.27 0.24 0.21 0.21 0.24 0.27 0.31 0.33 0.37 0.37 0.39 0.41 0.41 0.43 0.45 0.41 0.36 0.32 0.30 0.28 0.26 0.27 0.28 0.34 0.39 0.54
0.07 0.08 0.09 0.12 0.16 0.16 0.20 0.29 0.31 0.30 0.32 0.32 0.29 0.28 0.29 0.31 0.32 0.32 0.29 0.27 0.27 0.29 0.31 0.33 0.35 0.36 0.37 0.42 0.47 0.45 0.47 0.47 0.45 0.41 0.37 0.38 0.36 0.30 0.28 0.29 0.32 0.32 0.37
0.06 0.09 0.10 0.11 0.17 0.19 0.20 0.25 0.29 0.26 0.27 0.30 0.29 0.27 0.28 0.30 0.31 0.31 0.30 0.30 0.30 0.30 0.31 0.33 0.34 0.35 0.34 0.38 0.44 0.40 0.36 0.38 0.39 0.36 0.34 0.36 0.39 0.41 0.40 0.36 0.34 0.34 0.35
0.04 0.07 0.10 0.10 0.13 0.19 0.19 0.19 0.24 0.24 0.25 0.28 0.29 0.29 0.30 0.30 0.30 0.30 0.30 0.31 0.32 0.32 0.29 0.29 0.32 0.35 0.33 0.34 0.43 0.46 0.40 0.35 0.32 0.29 0.28 0.30 0.35 0.42 0.45 0.46 0.45 0.41 0.38
0.05 0.06 0.09 0.10 0.11 0.16 0.22 0.24 0.28 0.32 0.30 0.32 0.32 0.30 0.30 0.30 0.29 0.29 0.29 0.31 0.31 0.35 0.35 0.30 0.30 0.35 0.36 0.35 0.38 0.55 0.61 0.45 0.32 0.24 0.25 0.26 0.29 0.30 0.31 0.35 0.40 0.43 0.44
0.07 0.08 0.10 0.13 0.12 0.13 0.19 0.27 0.30 0.33 0.29 0.25 0.25 0.27 0.28 0.29 0.29 0.29 0.30 0.31 0.33 0.34 0.36 0.38 0.35 0.35 0.38 0.38 0.38 0.40 0.46 0.48 0.55 0.39 0.18 0.16 0.19 0.21 0.23 0.24 0.27 0.30 0.36
0.06 0.08 0.09 0.14 0.16 0.14 0.15 0.19 0.27 0.32 0.32 0.31 0.31 0.31 0.32 0.33 0.31 0.31 0.30 0.31 0.32 0.33 0.34 0.37 0.39 0.40 0.41 0.41 0.42 0.40 0.37 0.34 0.43 0.59 0.35 0.15 0.14 0.14 0.18 0.22 0.25 0.29 0.33
0.04 0.06 0.09 0.12 0.16 0.16 0.18 0.19 0.25 0.30 0.33 0.37 0.41 0.38 0.34 0.34 0.33 0.32 0.31 0.32 0.33 0.33 0.33 0.35 0.37 0.38 0.39 0.39 0.41 0.42 0.46 0.48 0.42 0.51 0.49 0.28 0.21 0.16 0.16 0.18 0.22 0.28 0.35